Bryce Canyon, UT

3:12 PM MST on February 21, 2018 (GMT -0700)
Bryce Canyon

Weather History for KBCE - October, 2011

Change the Weather History Date:

Sunday, October 16, 2011

  Actual Average Record
Temperature  
Mean Temperature 48 °F -  
Max Temperature 70 °F 56 °F 73 °F (1991)
Min Temperature 26 °F 25 °F 14 °F (1984)
Degree Days  
Heating Degree Days 17    
Moisture  
Dew Point 27 °F    
Average Humidity 48    
Maximum Humidity 89    
Minimum Humidity 18    
Precipitation  
Precipitation 0.00 in - - ()
Sea Level Pressure  
Sea Level Pressure 30.02 in    
Wind  
Wind Speed 7 mph (WSW)    
Max Wind Speed 16 mph    
Max Gust Speed 22 mph    
Visibility 10 miles    
Events      
Averages and records for this station are not official NWS values.
T = Trace of Precipitation, MM = Missing Value Source: NWS Daily Summary

Daily Weather History Graph

Daily Weather History Graph

Search for Another Location

Airport or City:

Trip Planner

Search our weather history database for the weather conditions in past years. The results will help you decide how hot, cold, wet, or windy it might be!

Date:

Astronomy

Oct. 16, 2011 Rise Set
Actual Time 7:37 AM MDT 6:50 PM MDT
Civil Twilight 7:11 AM MDT 7:16 PM MDT
Nautical Twilight 6:40 AM MDT 7:46 PM MDT
Astronomical Twilight 6:10 AM MDT 8:17 PM MDT
Moon 9:44 PM MDT (10/16) 11:53 AM MDT (10/16)
Length of Visible Light 12h 05m
Length of Day
11h 12m
Waning Gibbous, 82% of the Moon is Illuminated
Oct 16
Waning Gibbous
Oct 19
Last Quarter
Oct 26
New
Nov 2
First Quarter
Nov 10
Full

Hourly Weather History & Observations

Time (MDT) Temp. Windchill Dew Point Humidity Pressure Visibility Wind Dir Wind Speed Gust Speed Precip Events Conditions
12:53 AM 37.9 °F 31.5 °F 28.0 °F 68% 29.99 in 10.0 mi West 9.2 mph - N/A   Clear
1:53 AM 34.0 °F 31.0 °F 27.0 °F 75% 30.01 in 10.0 mi West 3.5 mph - N/A   Clear
2:53 AM 33.1 °F 28.7 °F 26.1 °F 75% 30.01 in 10.0 mi West 4.6 mph - N/A   Clear
3:53 AM 30.9 °F - 25.0 °F 79% 30.02 in 10.0 mi Calm Calm - N/A   Clear
5:53 AM 28.0 °F 21.7 °F 24.1 °F 85% 30.05 in 10.0 mi WSW 5.8 mph - N/A   Clear
6:53 AM 27.0 °F 21.6 °F 24.1 °F 89% 30.10 in 10.0 mi WSW 4.6 mph - N/A   Clear
7:53 AM 26.1 °F 19.4 °F 23.0 °F 88% 30.16 in 10.0 mi WSW 5.8 mph - N/A   Clear
8:53 AM 41.0 °F 36.4 °F 28.9 °F 62% 30.14 in 10.0 mi West 6.9 mph - N/A   Clear
9:53 AM 55.0 °F - 28.0 °F 35% 30.09 in 10.0 mi Calm Calm - N/A   Clear
10:53 AM 63.0 °F - 28.0 °F 27% 30.04 in 10.0 mi SE 8.1 mph - N/A   Clear
11:53 AM 64.9 °F - 26.1 °F 23% 30.02 in 10.0 mi SSE 6.9 mph 19.6 mph N/A   Clear
1:53 PM 70.0 °F - 24.1 °F 18% 29.99 in 10.0 mi SW 15.0 mph - N/A   Clear
2:53 PM 69.1 °F - 24.1 °F 18% 29.97 in 10.0 mi SW 16.1 mph 21.9 mph N/A   Clear
3:53 PM 69.1 °F - 24.1 °F 18% 29.97 in 10.0 mi WSW 13.8 mph 21.9 mph N/A   Clear
4:53 PM 68.0 °F - 26.1 °F 21% 29.99 in 10.0 mi WSW 12.7 mph - N/A   Clear
5:53 PM 64.9 °F - 27.0 °F 24% 30.00 in 10.0 mi WSW 15.0 mph 19.6 mph N/A   Clear
6:53 PM 57.0 °F - 28.0 °F 33% 30.05 in 10.0 mi SW 9.2 mph - N/A   Clear
7:53 PM 50.0 °F - 28.0 °F 43% 30.09 in 10.0 mi WSW 6.9 mph - N/A   Clear
8:53 PM 52.0 °F - 28.9 °F 41% 30.01 in 10.0 mi West 9.2 mph - N/A   Clear
9:53 PM 51.1 °F - 30.0 °F 44% 29.97 in 10.0 mi West 6.9 mph - N/A   Clear
10:53 PM 51.1 °F - 30.0 °F 44% 29.94 in 10.0 mi West 6.9 mph - N/A   Clear
11:53 PM 52.0 °F - 28.9 °F 41% 29.93 in 10.0 mi West 11.5 mph - N/A   Clear